Regional Weather Roundup
Issued by NWS

Home | Current Version | Previous Version | Text Only | Print | Product List | Glossary On
Versions: 1 2 3 4 5 6 7 8 9 10 11 12 13 14 15 16 17 18 19 20 21 22 23 24 25 26 27 28 29 30 31 32 33 34 35 36 37 38 39 40 41 42 43 44 45 46 47 48 49 50
000
ASCA42 TJSJ 071110
RWRPR
PUERTO RICO/U.S. VIRGIN ISLANDS HOURLY WEATHER ROUNDUP
NATIONAL WEATHER SERVICE SAN JUAN PR
700 AM AST TUE JUL 07 2015

PRZ001-004-071200-
PUERTO RICO

CITY           SKY/WX    TMP DP  RH WIND       PRES   REMARKS
SAN JUAN LMM   MOSUNNY   81  73  78 SE3       30.07R
AGUADILLA      SUNNY     75  70  83 SE3       30.08
CEIBA          MOSUNNY   82  72  69 E8        30.08R
$$

PRZ006-007-071200-
U.S. VIRGIN ISLANDS

CITY           SKY/WX    TMP DP  RH WIND       PRES   REMARKS
CHARLOTTE AMA  MOSUNNY   82  73  74 E3        30.05R
CHRISTIANSTED  MOSUNNY   81  72  74 E15       30.05R
$$

HOURLY WEATHER ROUNDUP FOR THE NEWS MEDIA

CITY           SKY/WX    TMP DP  RH WIND       PRES   REMARKS
ORLANDO        MOCLDY    75  72  90 CALM      30.16R
NEW YORK       CLOUDY    75  72  88 S10       30.06
NEWARK         PTSUNNY   77  72  84 S5        30.04S
CHICAGO        RAIN      59  57  93 N18       29.91R FOG
HARTFORD       CLOUDY    71  68  90 S3        30.12R
BOSTON         CLOUDY    68  66  93 SE5       30.12S
DALLAS         CLOUDY    80  72  76 S12G18    29.96R
PHILADELPHIA   MOSUNNY   77  71  82 S7        30.04S
LOS ANGELES    CLOUDY    64  60  87 W6        29.98S
WASHINGTON DC  FOG       71  70  96 W3        30.06R VSB 1/8



USA.gov is the U.S. government's official web portal to all federal, state and local government web resources and services.